Simultaneous Nadir Overpasses (SNOs) Predictions

Prediction of SNOs between AQUA and METOP-C Satellite Orbit:

Table of predicted SNOs for the next 14.0 days since TLE Epoch: 4/1/2023
Index Date (AQUA) Time (AQUA) Lat,Lon (AQUA) SZA (AQUA ) Date (METOP-C) Time (METOP-C) Lat,Lon (METOP-C) SZA (METOP-C ) Distance(km) Time Diff (sec)
1 04/01/2023 09:13:46 -74.28,-142.76 110.25 04/01/2023 09:12:48 -74.30,-142.82 110.22 2.77 58
2 04/01/2023 10:03:13 74.34, 24.73 69.81 04/01/2023 10:03:27 74.34, 24.62 69.81 3.26 14
3 04/01/2023 10:52:50 -75.00,-169.27 109.51 04/01/2023 10:53:56 -74.96,-166.38 109.63 83.18 66
4 04/04/2023 03:06:58 -74.28, -51.04 111.31 04/04/2023 03:05:50 -74.28, -51.13 111.30 2.86 68
5 04/04/2023 03:56:25 74.35, 116.44 68.76 04/04/2023 03:56:28 74.37, 116.44 68.78 2.84 3
6 04/04/2023 04:45:54 -74.59, -76.51 111.00 04/04/2023 04:47:05 -74.60, -75.63 111.02 26.02 71
7 04/06/2023 21:00:08 -74.23, 40.80 112.41 04/06/2023 20:58:55 -74.15, 40.27 112.47 18.75 73
8 04/06/2023 21:49:36 74.36,-151.86 67.72 04/06/2023 21:49:31 74.34,-151.90 67.71 2.45 5
9 04/06/2023 22:39:01 -74.40, 15.70 112.26 04/06/2023 22:40:11 -74.42, 15.63 112.24 3.37 70
10 04/09/2023 14:53:11 -73.94, 133.22 113.75 04/09/2023 14:52:02 -73.90, 131.40 113.73 56.41 69
11 04/09/2023 15:42:44 74.33, -60.05 66.66 04/09/2023 15:42:33 74.34, -60.16 66.67 3.57 11
12 04/09/2023 16:32:10 -74.42, 107.40 113.27 04/09/2023 16:33:13 -74.42, 107.36 113.27 1.21 63
13 04/12/2023 08:46:13 -73.76,-134.61 114.95 04/12/2023 08:45:07 -73.68,-137.38 114.95 86.50 66
14 04/12/2023 09:35:50 74.36, 31.63 65.67 04/12/2023 09:35:33 74.38, 31.67 65.69 2.08 17
15 04/12/2023 10:25:16 -74.44,-160.91 114.26 04/12/2023 10:26:13 -74.45,-160.82 114.26 2.77 57



Historial Predications of SNOs between AQUA and METOP-C
